Wind_Speed
25 23 23 26 26 27 26 27 26 27 30 38 37 33 35 34 29 27 26 24 26 23 25 26 28 27 26 27 27 29 30 29 27 26 28 30 32 32 32 31 32 30 27 26
19 21 22 23 21 20 21 25 28 31 34 33 36 33 27 25 25 28 28 28 30 26 26 24 26 25 25 28 28 30 30 29 28 27 28 30 31 32 30 30 30 30 30 29
15 16 17 16 18 21 24 25 26 28 34 35 31 34 30 27 28 34 33 33 31 28 25 22 27 29 25 27 29 30 30 31 29 29 32 32 32 32 32 32 33 32 31 32
11 13 13 14 17 23 26 28 28 29 31 31 28 33 31 30 32 33 34 34 33 33 26 23 26 28 27 27 29 31 32 31 28 32 32 33 33 34 33 33 34 36 38 38
13 13 15 17 17 22 25 28 30 31 33 35 30 38 36 34 35 37 39 39 38 37 31 24 23 28 29 30 31 32 31 32 30 33 33 33 34 35 35 35 35 36 39 42
13 13 17 19 22 24 26 27 29 31 33 37 28 36 41 37 36 38 37 34 32 39 34 19 24 25 30 31 32 31 31 31 32 35 35 35 35 36 38 39 39 41 44 46
13 14 17 19 22 24 24 26 29 34 32 33 32 35 36 37 34 34 32 38 39 43 30 25 28 24 27 30 31 31 30 31 34 36 37 37 36 38 42 42 42 45 48 51
18 19 20 21 21 24 28 29 31 38 38 38 37 38 37 34 31 29 31 26 38 41 27 15 24 22 28 30 29 30 30 32 35 35 36 36 39 43 43 44 47 49 50 49
17 19 20 22 25 28 33 36 38 39 41 42 40 38 35 33 31 30 31 32 25 34 23 25 23 26 30 28 29 30 32 33 33 34 36 39 42 44 44 47 50 50 50 52
18 19 23 28 31 34 36 38 40 41 44 45 43 39 34 30 27 25 28 28 26 30 26 28 28 26 28 31 31 33 33 33 33 37 39 40 42 44 46 48 48 51 55 52
21 23 28 34 36 38 37 41 41 40 38 39 33 28 25 28 24 24 21 17 25 35 29 31 28 28 29 30 32 34 34 33 36 38 38 41 43 44 45 47 50 50 49 52
23 29 30 32 34 35 38 34 30 29 27 26 29 31 22 20 20 15 17 16 19 22 25 28 29 29 29 31 33 35 37 37 35 37 39 41 42 42 45 47 48 49 50 53
23 25 27 27 26 23 19 15 15 18 16 20 21 8 20 20 17 16 17 17 20 22 22 25 27 27 29 32 34 33 33 35 37 38 40 40 39 42 43 45 50 50 51 53
20 20 17 15 13 10 11 13 14 15 16 9 15 14 17 19 10 9 12 17 18 21 22 24 26 27 31 35 34 32 37 37 38 38 38 38 39 39 42 49 50 51 52 52
13 10 8 7 8 13 14 12 13 14 15 12 9 15 19 14 10 13 15 18 21 22 25 27 28 30 33 36 37 36 38 37 35 36 37 37 37 37 43 49 49 50 49 46
7 7 7 9 12 15 13 13 13 13 12 10 9 8 9 10 12 14 17 20 24 26 30 31 34 32 33 34 34 34 34 35 34 35 35 36 34 40 46 48 46 46 42 46
7 8 9 9 13 13 11 12 11 12 12 11 10 10 11 13 15 19 22 25 29 31 33 34 35 35 34 35 33 33 34 34 34 34 36 32 34 40 44 42 42 41 44 45
6 7 8 8 11 11 11 12 12 12 12 13 13 14 15 19 22 25 28 31 34 36 36 35 35 35 35 35 34 34 33 33 32 35 31 29 33 37 37 38 37 39 40 43
6 6 9 8 9 9 11 13 15 17 18 18 19 19 21 25 28 32 34 36 36 35 34 34 34 34 34 34 34 32 32 34 32 27 26 26 30 29 31 36 34 37 40 43
8 8 10 9 11 14 15 16 17 19 19 22 23 24 28 31 33 35 35 34 33 33 32 32 32 32 33 34 32 29 25 22 22 22 22 22 25 26 30 30 34 39 44 44
10 12 12 12 14 18 19 23 24 26 25 25 28 31 34 35 35 33 32 30 30 29 28 28 31 31 25 22 22 21 19 18 17 17 16 16 20 25 29 24 34 40 44 43
12 13 14 14 18 22 23 26 27 27 27 29 32 34 34 31 30 29 27 24 27 28 25 25 24 24 23 21 17 15 15 16 17 16 13 13 19 20 24 26 35 37 40 41
13 15 15 18 21 25 28 28 28 27 28 30 30 29 28 29 29 26 21 23 23 22 23 24 23 23 23 22 21 15 16 19 17 16 13 13 18 17 24 31 33 32 34 39
15 16 16 20 23 27 27 29 29 29 28 28 27 27 23 20 23 22 23 23 22 21 22 23 21 21 22 20 17 13 11 14 16 13 16 15 17 20 24 30 30 32 30 39
13 14 17 20 23 27 27 30 29 27 25 24 23 21 21 21 23 21 21 21 20 20 21 22 17 16 18 16 16 11 7 12 13 15 18 18 18 19 22 25 27 29 30 34
13 15 17 20 24 26 27 26 26 23 21 18 19 21 19 19 20 20 21 19 16 17 20 16 15 16 15 17 14 13 12 12 13 20 23 21 19 21 23 28 30 33 34 32
Wind_Direction
251 250 250 249 249 253 261 264 268 279 273 278 281 280 284 278 286 294 288 299 291 290 291 291 291 288 286 288 291 293 299 306 306 301 298 301 302 301 299 298 298 301 302 300
255 247 248 250 252 255 262 273 276 272 272 276 285 288 283 286 291 288 293 305 301 295 286 288 285 284 285 288 292 294 301 307 305 304 302 304 306 307 307 306 303 303 303 302
242 248 251 255 271 275 269 267 267 270 276 283 288 284 285 293 294 296 296 296 296 294 289 289 283 287 290 289 291 300 304 309 308 307 307 308 308 309 308 307 307 306 306 306
246 254 259 265 269 270 269 270 273 278 283 288 285 290 286 292 292 295 296 296 294 291 290 278 284 289 290 295 301 302 306 310 306 306 305 305 307 308 307 307 307 310 310 308
247 255 258 263 265 261 267 269 278 280 279 283 294 290 292 288 291 295 297 298 297 295 283 273 293 299 299 299 300 302 306 308 303 302 301 302 305 306 306 307 305 304 304 305
266 265 268 272 268 275 280 279 280 279 279 278 288 280 282 286 288 287 290 299 289 254 276 270 285 290 294 299 299 303 306 304 301 301 301 303 304 306 309 306 306 306 305 303
279 279 279 281 277 278 279 281 280 278 277 283 281 277 283 290 290 290 290 292 294 278 252 301 285 294 295 298 300 301 304 304 302 303 302 303 304 306 304 303 304 305 304 305
286 296 296 290 289 285 281 279 277 280 277 277 278 283 289 290 288 286 287 292 302 277 253 269 296 300 300 300 299 299 303 300 302 303 302 302 306 305 303 304 305 305 306 306
285 285 288 290 288 285 286 285 284 285 286 286 290 294 295 294 290 285 280 283 288 262 266 295 315 308 304 302 298 301 298 300 301 300 301 303 303 303 305 307 308 310 309 308
297 301 300 295 296 293 291 290 289 289 287 288 292 297 300 291 285 279 277 281 286 262 285 313 313 311 306 302 302 298 298 301 297 299 302 302 303 304 307 309 311 310 309 309
306 306 304 302 299 296 295 295 292 288 283 287 292 289 292 289 285 283 288 275 273 295 305 303 302 300 298 300 298 296 298 295 294 298 301 303 306 310 311 311 311 313 314 313
309 306 304 297 298 303 301 299 295 293 285 273 295 276 304 265 277 289 292 305 295 303 302 304 304 305 300 300 299 299 298 301 300 303 304 306 311 312 313 317 318 317 317 317
310 308 310 314 313 309 305 327 333 326 312 258 278 325 257 330 312 293 302 294 282 285 290 295 295 296 299 300 299 299 302 304 305 305 308 311 314 315 319 322 321 320 321 319
313 319 323 324 323 355 28 27 2 358 4 312 284 292 314 312 299 277 286 298 303 299 298 294 297 297 296 294 304 306 305 305 306 308 312 313 315 319 324 322 321 325 325 324
319 331 348 358 24 49 47 30 21 22 17 16 343 292 297 303 290 302 308 299 301 303 302 299 300 298 299 301 304 304 303 305 307 310 312 314 318 323 323 322 326 327 329 328
320 346 358 14 32 46 37 32 18 11 22 21 13 351 334 320 312 307 303 303 304 299 296 299 301 304 303 303 303 303 304 305 309 310 312 316 319 324 320 326 328 333 334 334
339 354 359 7 33 27 19 22 15 2 359 358 357 345 332 324 316 308 305 300 298 300 302 301 300 301 302 302 301 303 304 307 310 312 314 316 321 323 327 330 333 336 335 336
338 350 345 21 30 14 6 3 359 351 347 346 340 328 319 311 306 302 302 301 302 303 303 301 302 302 301 301 302 304 305 306 309 311 314 321 325 329 334 334 341 344 342 344
320 322 323 7 10 351 348 344 338 338 333 330 326 321 312 305 306 305 305 304 303 303 301 301 299 298 301 301 304 306 306 306 309 314 319 326 329 336 334 342 351 357 354 354
296 309 314 346 343 332 329 326 328 326 326 321 318 312 308 308 307 306 305 305 306 304 304 304 305 306 305 304 305 307 310 314 315 319 321 329 337 339 333 343 355 358 360 358
297 303 316 339 332 325 321 324 324 324 321 317 310 308 311 310 309 310 310 310 309 308 308 306 305 309 317 321 323 320 319 317 319 322 325 343 345 339 338 352 2 1 2 360
296 305 321 329 322 321 318 319 321 318 309 306 309 309 309 312 315 316 313 305 305 310 316 321 324 324 325 323 326 331 335 330 325 333 331 346 345 341 349 359 354 357 1 4
297 302 317 318 316 315 317 316 311 308 309 311 312 314 316 318 316 316 325 328 330 330 323 323 326 327 323 315 311 318 333 340 341 341 333 349 351 347 348 349 359 360 9 13
292 296 307 312 312 309 311 310 314 316 316 317 318 326 330 334 335 339 337 336 339 340 339 335 334 338 340 337 331 319 313 323 348 355 4 1 357 352 353 6 8 11 19 21
296 303 315 315 312 307 313 317 322 326 326 335 346 347 350 348 344 353 348 344 340 340 341 342 344 345 350 359 359 7 353 5 34 34 30 23 23 16 19 12 17 24 26 24
311 323 323 313 310 316 323 330 334 338 357 2 360 357 6 2 1 6 3 355 346 343 348 9 12 16 32 21 36 57 58 64 44 50 41 37 38 27 26 21 18 21 25 28
Height
5776 5778 5777 5777 5778 5777 5777 5776 5775 5776 5773 5772 5770 5768 5766 5764 5763 5761 5759 5758 5756 5753 5752 5749 5746 5742 5739 5736 5733 5730 5726 5721 5718 5714 5711 5707 5702 5698 5694 5690 5686 5682 5678 5674
5772 5773 5772 5772 5774 5774 5772 5771 5772 5770 5767 5764 5763 5760 5758 5757 5757 5755 5752 5750 5749 5747 5746 5744 5741 5737 5734 5730 5726 5723 5719 5715 5712 5709 5705 5701 5696 5691 5687 5683 5679 5675 5671 5667
5769 5769 5769 5769 5770 5769 5767 5766 5766 5763 5760 5757 5756 5751 5751 5751 5750 5748 5745 5745 5743 5741 5739 5737 5733 5730 5727 5724 5721 5716 5712 5708 5705 5702 5697 5693 5689 5685 5680 5675 5671 5668 5664 5659
5767 5766 5766 5766 5766 5764 5763 5762 5760 5756 5754 5751 5749 5744 5744 5746 5743 5741 5740 5738 5735 5733 5732 5730 5726 5722 5719 5715 5712 5709 5706 5702 5699 5695 5691 5687 5683 5678 5673 5669 5664 5658 5654 5650
5765 5763 5763 5762 5762 5759 5757 5755 5753 5750 5747 5744 5745 5738 5739 5739 5737 5735 5731 5728 5725 5725 5724 5721 5719 5715 5710 5707 5706 5703 5699 5696 5694 5689 5686 5681 5676 5672 5667 5662 5658 5653 5648 5642
5761 5761 5760 5759 5758 5756 5753 5750 5748 5744 5741 5736 5741 5734 5729 5730 5730 5727 5723 5720 5719 5715 5713 5713 5710 5707 5705 5702 5700 5696 5693 5690 5687 5682 5678 5674 5669 5665 5660 5655 5649 5644 5638 5633
5758 5758 5757 5755 5753 5750 5748 5746 5742 5737 5734 5731 5729 5725 5725 5723 5721 5718 5716 5713 5712 5712 5707 5705 5703 5695 5699 5697 5693 5690 5686 5683 5679 5675 5671 5666 5662 5657 5652 5646 5641 5635 5628 5622
5754 5753 5751 5749 5747 5745 5741 5740 5736 5728 5727 5726 5723 5720 5719 5716 5715 5713 5710 5707 5705 5702 5700 5697 5694 5695 5693 5689 5685 5683 5678 5676 5673 5668 5663 5659 5654 5648 5643 5637 5630 5624 5617 5610
5750 5749 5747 5744 5741 5739 5734 5729 5727 5722 5719 5714 5713 5711 5711 5708 5707 5707 5705 5703 5702 5702 5689 5690 5689 5689 5686 5681 5679 5674 5673 5670 5666 5661 5656 5651 5646 5640 5633 5626 5619 5612 5604 5597
5746 5743 5741 5738 5735 5731 5726 5722 5718 5714 5708 5704 5703 5703 5701 5699 5699 5699 5698 5697 5697 5694 5686 5685 5683 5682 5678 5675 5671 5669 5666 5663 5658 5654 5648 5642 5637 5631 5624 5616 5609 5602 5593 5584
5739 5738 5736 5730 5727 5723 5719 5712 5708 5705 5702 5698 5696 5696 5693 5690 5692 5692 5692 5692 5688 5685 5684 5681 5679 5676 5671 5668 5666 5663 5659 5655 5651 5645 5640 5634 5628 5622 5615 5607 5599 5590 5581 5572
5735 5731 5729 5725 5719 5713 5709 5704 5700 5694 5693 5693 5691 5688 5687 5684 5686 5688 5687 5686 5685 5681 5676 5674 5672 5668 5666 5663 5660 5656 5651 5647 5642 5637 5632 5626 5620 5613 5606 5597 5589 5579 5570 5561
5731 5728 5721 5716 5714 5709 5703 5698 5694 5690 5687 5687 5688 5686 5686 5685 5684 5684 5683 5681 5678 5675 5673 5670 5668 5664 5661 5657 5652 5648 5643 5639 5635 5630 5625 5619 5612 5605 5597 5589 5580 5570 5560 5549
5727 5721 5718 5715 5711 5704 5698 5696 5693 5689 5684 5682 5683 5684 5685 5683 5681 5680 5678 5676 5672 5671 5669 5666 5663 5658 5654 5649 5645 5641 5637 5632 5628 5622 5616 5611 5604 5597 5590 5581 5571 5560 5549 5537
5724 5721 5717 5714 5710 5702 5700 5698 5694 5691 5687 5684 5683 5682 5682 5680 5677 5676 5673 5671 5669 5667 5664 5660 5656 5651 5647 5642 5638 5633 5629 5624 5619 5614 5609 5603 5597 5590 5582 5572 5562 5551 5539 5528
5723 5720 5717 5714 5708 5703 5701 5698 5695 5691 5688 5686 5684 5683 5681 5678 5676 5673 5670 5668 5665 5661 5656 5652 5648 5644 5639 5635 5630 5626 5621 5617 5612 5607 5602 5596 5590 5583 5575 5565 5555 5544 5532 5521
5721 5718 5716 5714 5706 5704 5703 5698 5695 5693 5691 5688 5685 5682 5679 5676 5674 5671 5667 5662 5658 5653 5649 5645 5640 5636 5632 5627 5623 5619 5614 5610 5605 5601 5596 5590 5584 5577 5569 5560 5550 5538 5527 5515
5719 5718 5717 5712 5707 5706 5703 5699 5696 5694 5691 5689 5685 5682 5678 5673 5669 5665 5661 5657 5651 5647 5642 5638 5633 5628 5624 5619 5615 5611 5607 5602 5598 5594 5589 5584 5578 5571 5564 5556 5546 5535 5523 5511
5719 5718 5717 5711 5707 5707 5703 5699 5697 5693 5690 5686 5683 5678 5673 5668 5664 5658 5654 5649 5644 5639 5634 5629 5624 5620 5616 5612 5608 5604 5600 5596 5592 5587 5584 5579 5574 5568 5561 5553 5543 5532 5520 5507
5719 5718 5717 5710 5707 5705 5702 5698 5694 5690 5687 5682 5677 5672 5668 5662 5657 5651 5645 5640 5636 5630 5625 5620 5615 5611 5608 5604 5599 5595 5592 5589 5585 5582 5578 5574 5571 5565 5559 5551 5542 5529 5517 5505
5718 5717 5714 5708 5705 5703 5698 5694 5690 5686 5684 5675 5670 5665 5660 5654 5649 5643 5637 5632 5626 5621 5616 5612 5608 5604 5600 5596 5593 5590 5586 5583 5580 5577 5574 5571 5567 5562 5557 5549 5539 5528 5517 5505
5717 5715 5711 5705 5703 5700 5695 5691 5687 5681 5674 5669 5664 5659 5653 5647 5641 5635 5629 5624 5619 5614 5610 5607 5603 5598 5595 5592 5588 5585 5582 5580 5577 5574 5571 5568 5564 5560 5555 5548 5538 5528 5518 5507
5715 5713 5708 5704 5700 5695 5692 5686 5680 5674 5668 5663 5658 5652 5645 5640 5634 5629 5624 5619 5615 5611 5607 5602 5598 5593 5589 5586 5583 5581 5579 5576 5575 5572 5570 5566 5563 5560 5555 5547 5537 5528 5520 5510
5712 5709 5704 5700 5697 5692 5688 5681 5675 5670 5664 5658 5652 5646 5639 5634 5630 5626 5621 5616 5612 5607 5602 5598 5594 5590 5586 5581 5578 5577 5577 5576 5574 5572 5568 5565 5563 5559 5553 5546 5538 5529 5521 5513
5709 5704 5699 5696 5692 5687 5682 5676 5671 5665 5658 5653 5647 5642 5637 5633 5629 5624 5619 5614 5609 5605 5600 5595 5591 5588 5585 5580 5577 5575 5576 5576 5575 5572 5569 5565 5563 5559 5554 5547 5540 5532 5523 5516
5705 5700 5697 5693 5688 5683 5678 5673 5667 5660 5655 5651 5646 5642 5637 5633 5628 5623 5617 5612 5607 5603 5599 5595 5591 5588 5585 5582 5578 5577 5577 5577 5576 5574 5571 5567 5564 5560 5554 5548 5541 5533 5525 5518